Date,TemperatureHighF,TemperatureAvgF,TemperatureLowF,DewpointHighF,DewpointAvgF,DewpointLowF,HumidityHigh,HumidityAvg,HumidityLow,PressureMaxIn,PressureMinIn,WindSpeedMaxMPH,WindSpeedAvgMPH,GustSpeedMaxMPH,PrecipitationSumIn
2013-3-10,64,59,56,37,36,33,46,42,31,30.02,28.25,0,0,0,0.10
2013-3-11,74,60,48,40,36,30,61,42,27,30.07,29.80,0,0,0,0.00
2013-3-12,82,65,49,44,37,31,54,37,22,29.98,29.74,0,0,0,0.00
2013-3-13,88,71,53,41,38,33,49,31,18,30.02,29.75,0,0,0,0.00
2013-3-14,92,74,59,39,36,32,38,26,14,30.00,29.73,0,0,0,0.00
2013-3-15,90,75,59,38,33,27,31,23,14,29.91,29.64,0,0,0,0.00
2013-3-16,88,74,60,36,32,28,32,22,13,29.77,29.47,0,0,0,0.00
2013-3-17,84,72,61,39,30,25,27,22,16,29.75,29.57,0,0,0,0.00
2013-3-18,83,70,58,38,34,28,38,26,17,29.86,29.66,0,0,0,0.00
2013-3-19,79,71,62,38,35,31,34,27,21,29.88,29.72,0,0,0,0.00
2013-3-20,81,71,61,38,36,32,36,28,21,29.90,29.66,0,0,0,0.00
2013-3-21,77,69,61,39,36,32,34,29,25,29.70,29.51,0,0,0,0.00
2013-3-22,80,71,60,40,36,33,38,28,21,29.64,29.46,0,0,0,0.00
2013-3-23,73,67,60,38,29,20,35,25,15,29.85,29.64,0,0,0,0.00
2013-3-24,74,63,50,29,20,17,28,20,13,29.91,29.67,0,0,0,0.00
2013-3-25,78,68,56,36,26,19,32,22,16,29.88,29.67,0,0,0,0.00
2013-3-26,84,72,59,32,27,23,26,20,14,29.84,29.58,0,0,0,0.00
2013-3-27,83,73,61,36,28,24,24,19,16,29.81,29.65,0,0,0,0.00
2013-3-28,83,73,61,38,30,23,27,21,16,29.90,29.72,0,0,0,0.00
2013-3-29,84,73,61,39,30,26,28,21,14,29.95,29.74,0,0,0,0.00
2013-3-30,80,72,63,36,30,26,26,22,17,29.91,29.71,0,0,0,0.00
2013-3-31,82,72,59,37,33,29,33,25,19,29.92,29.67,0,0,0,0.00